User: anonymous   Login
Location: Bartlow
(52.0833°N, 0.3167°E)
Time: 10:06:32
(UTC+00:00)
Language:

Meteor 2-17 Rocket - Orbit

View from above orbital plane
View from above orbital plane
View from above satellite
View from above satellite

Ground track
Ground track

The orbit data is extracted from the following two-line orbital elements,

1 18821U 88005B   24056.89423753  .00000050  00000-0  31547-4 0  9998
2 18821  82.5397 276.1186 0013328 305.0123  54.9786 13.85165101823427
Epoch (UTC): 25 February 2024 21:27:42
Eccentricity: 0.0013328
inclination: 82.5397°
perigee height: 936 km
apogee height: 955 km
right ascension of ascending node: 276.1186°
argument of perigee: 305.0123°
revolutions per day: 13.85165101
mean anomaly at epoch: 54.9786°
orbit number at epoch: 82342

The dashed part of the orbit path shows where the satellite is in the earth's shadow,  

DLR